Weather in Zymohiria

Ukraine / Luhansk Region     48˚35′18″N   38˚55′31″E
temp.,
°C
wind,
m/s
gust,
m/s
humid.,
%
clouds,
%
prec.,
mm/h
press.,
hPa
HPBL,
m
28 november, sat
sat2823:00+4˚ssw41091100 0.0 1023316
02:00+5˚s4993100 0.1 1023259
05:00+4˚s4109599 0.0 1023317
08:00+4˚s51091100 0.0 1024311
11:00+6˚s588198 0.0 1025437
14:00+6˚sse487695 0.0 1024458
17:00+3˚se399160 0.0 1024243
20:00+2˚ese499176 0.0 1025260
29 november, sun
sun2923:00+1˚se498694 0.0 1025268
02:00+1˚se379687 0.0 1025212
05:00+4˚se5994100 0.0 1024422
08:00+4˚se61194100 0.0 1025557
11:00+7˚sse71178100 0.0 1025653
14:00+8˚se6107695 0.0 1025747
17:00+7˚se6117797 0.0 1026665
20:00+6˚se6107998 0.0 1027728
30 november, mon
mon3023:00+6˚se51083100 0.0 1026599
02:00+6˚se51085100 0.0 1027630
05:00+6˚ese51085100 0.0 1026573
08:00+5˚ese61080100 0.0 1027540
11:00+6˚ese7106787 0.0 1027898
14:00+5˚ese7106993 0.0 1026873
17:00+5˚ese61173100 0.0 1026813
20:00+3˚ese71268100 0.0 1027815
1 december, tue
tue123:00+2˚ese6116898 0.0 1027689
02:00ese6117283 0.0 1027530
05:00−1˚ese612835 0.0 1027558
08:00e6128330 0.0 1028610
11:00+2˚ese7117392 0.0 1027668
14:00+3˚e7116978 0.0 1027786
17:00e6127627 0.0 1028723
20:00ese7138053 0.0 1028628
2 december, wed
wed223:00−1˚ese7128191 0.0 1029640
02:00−1˚ese7108095 0.0 1029686
05:00−1˚ese61082100 0.0 1029752
08:00ese71178100 0.0 1030767
11:00+1˚ese71074100 0.0 1031743
14:00+1˚e7116898 0.0 1030686
17:00−1˚e6127224 0.0 1030523
20:00−2˚ese7127212 0.0 1031523